Location: ????????
(38.4362°N, 22.8767°E)
Time: 13:42:43
(UTC+00:00)

FENGYUN 3A - Pass Details

Date: 23 April 2024
Orbit: 822 x 835 km, 98.6° (Epoch: 17 May)

Event Time Altitude Azimuth Distance (km) Brightness Sun altitude
Rises 01:24:44 0° 6° (N) 3,383 7.5 -24.2°
Reaches altitude 10° 01:27:10 10° 1° (N) 2,443 6.6 -23.8°
Maximum altitude 01:32:18 46° 289° (WNW) 1,097 4.0 -23.0°
Enters shadow 01:32:49 45° 272° (W) 1,118 4.0 -23.0°
